Weather History for Mount Carmel, IL

Change the Weather History Date:

Saturday, January 11, 2014

  Actual Average (KLWV) Record (KLWV)
Temperature  
Mean Temperature 38 °F 31 °F  
Max Temperature 44 °F 39 °F 63 °F (2005)
Min Temperature 33 °F 23 °F -6 °F (1997)
Degree Days  
Heating Degree Days 26 34  
Month to date heating degree days 374  
Since 1 July heating degree days 2173  
Cooling Degree Days 0 0  
Month to date cooling degree days 0  
Year to date cooling degree days 0  
Moisture  
Dew Point 36 °F    
Average Humidity 92    
Maximum Humidity 100    
Minimum Humidity 81    
Precipitation  
Precipitation 0.13 in 0.09 in 0.81 in (1980)
Month to date precipitation 1.01  
Year to date precipitation 1.01  
Sea Level Pressure  
Sea Level Pressure 29.70 in    
Wind  
Wind Speed 10 mph (WSW)    
Max Wind Speed 23 mph    
Max Gust Speed 26 mph    
Visibility 9 miles    
Events Rain    
T = Trace of Precipitation, MM = Missing Value Source: NWS Daily Summary

Daily Weather History Graph

Daily Weather History Graph

Search for Another Location

Airport:

Trip Planner

Search our weather history database for the weather conditions in past years. The results will help you decide how hot, cold, wet, or windy it might be!

Date:

Astronomy

Jan. 11, 2014 Rise Set
Actual Time 7:08 AM CST 4:49 PM CST
Civil Twilight 6:39 AM CST 5:18 PM CST
Nautical Twilight 6:06 AM CST 5:51 PM CST
Astronomical Twilight 5:34 AM CST 6:23 PM CST
Moon 1:33 PM CST (1/11) 3:13 AM CST (1/11)
Length of Visible Light 10h 39m
Length of Day
9h 41m
Waxing Gibbous, 83% of the Moon is Illuminated
Jan 11
Waxing Gibbous
Jan 15
Full
Jan 23
Last Quarter
Jan 30
New
Feb 6
First Quarter

Hourly Weather History & Observations

Time (CST) Temp. Windchill Dew Point Humidity Pressure Visibility Wind Dir Wind Speed Gust Speed Precip Events Conditions
12:15 AM 44.6 °F 39.2 °F 44.6 °F 100% 29.62 in 10.0 mi SSW 10.4 mph - N/A   Overcast
12:35 AM 44.6 °F 41.4 °F 42.8 °F 93% 29.59 in 10.0 mi South 5.8 mph - 0.01 in   Overcast
12:55 AM 44.6 °F 41.4 °F 42.8 °F 93% 29.60 in 5.0 mi South 5.8 mph - 0.01 in   Light Drizzle
1:15 AM 44.6 °F 42.2 °F 42.8 °F 93% 29.57 in 5.0 mi SSE 4.6 mph - N/A   Light Drizzle
1:35 AM 42.8 °F - 42.8 °F 100% 29.57 in 4.0 mi Calm Calm - 0.01 in Rain Light Rain
1:55 AM 42.8 °F 39.3 °F 42.8 °F 100% 29.56 in 2.5 mi South 5.8 mph - 0.01 in Rain Light Rain
2:15 AM 44.6 °F 40.2 °F 42.8 °F 93% 29.56 in 7.0 mi South 8.1 mph - 0.01 in   Drizzle
2:35 AM 44.6 °F 39.7 °F 44.6 °F 100% 29.55 in 10.0 mi SSW 9.2 mph - 0.01 in   Overcast
2:55 AM 44.6 °F 40.7 °F 42.8 °F 93% 29.55 in 7.0 mi SSW 6.9 mph - 0.02 in   Overcast
3:15 AM 44.6 °F 38.8 °F 44.6 °F 100% 29.55 in 7.0 mi SSW 11.5 mph - N/A   Overcast
3:35 AM 44.6 °F 39.2 °F 44.6 °F 100% 29.55 in 3.0 mi SSW 10.4 mph - N/A   Light Drizzle
3:55 AM 44.6 °F 38.4 °F 44.6 °F 100% 29.54 in 5.0 mi SSW 12.7 mph - 0.01 in   Overcast
4:15 AM 44.6 °F 38.4 °F 44.6 °F 100% 29.55 in 10.0 mi SW 12.7 mph - N/A   Overcast
4:35 AM 44.6 °F 39.2 °F 44.6 °F 100% 29.55 in 10.0 mi WSW 10.4 mph - N/A   Overcast
4:55 AM 44.6 °F 38.8 °F 44.6 °F 100% 29.55 in 10.0 mi WSW 11.5 mph - 0.01 in   Overcast
5:15 AM 44.6 °F 38.4 °F 44.6 °F 100% 29.55 in 10.0 mi WSW 12.7 mph - N/A   Overcast
5:35 AM 44.6 °F 38.4 °F 42.8 °F 93% 29.56 in 10.0 mi WSW 12.7 mph 17.3 mph N/A   Overcast
5:55 AM 44.6 °F 38.1 °F 42.8 °F 93% 29.57 in 10.0 mi West 13.8 mph - N/A   Overcast
6:15 AM 42.8 °F 35.1 °F 42.8 °F 100% 29.57 in 10.0 mi West 16.1 mph - 0.01 in   Overcast
6:35 AM 42.8 °F 35.4 °F 41.0 °F 93% 29.58 in 10.0 mi West 15.0 mph 19.6 mph 0.01 in   Overcast
6:55 AM 42.8 °F 35.8 °F 39.2 °F 87% 29.58 in 10.0 mi West 13.8 mph 23.0 mph 0.01 in   Mostly Cloudy
7:15 AM 41.0 °F 33.5 °F 37.4 °F 87% 29.60 in 10.0 mi WSW 13.8 mph 18.4 mph N/A   Scattered Clouds
7:35 AM 41.0 °F 33.5 °F 37.4 °F 87% 29.61 in 7.0 mi WSW 13.8 mph - N/A   Mostly Cloudy
7:55 AM 41.0 °F 32.5 °F 37.4 °F 87% 29.62 in 7.0 mi West 17.3 mph 23.0 mph 0.01 in   Overcast
8:15 AM 41.0 °F 31.6 °F 35.6 °F 81% 29.63 in 7.0 mi West 20.7 mph 26.5 mph N/A   Overcast
8:35 AM 39.2 °F 33.0 °F 35.6 °F 87% 29.65 in 5.0 mi West 9.2 mph 12.7 mph N/A   Overcast
8:55 AM 37.4 °F 30.3 °F 35.6 °F 93% 29.66 in 5.0 mi WSW 10.4 mph - N/A   Overcast
9:15 AM 37.4 °F 28.9 °F 35.6 °F 93% 29.66 in 7.0 mi WSW 13.8 mph - N/A   Overcast
9:35 AM 37.4 °F 28.2 °F 35.6 °F 93% 29.67 in 7.0 mi West 16.1 mph - N/A   Overcast
9:55 AM 37.4 °F 28.9 °F 35.6 °F 93% 29.68 in 10.0 mi West 13.8 mph - N/A   Overcast
10:15 AM 37.4 °F 28.9 °F 35.6 °F 93% 29.69 in 10.0 mi West 13.8 mph - 0.01 in   Overcast
10:35 AM 37.4 °F 27.8 °F 33.8 °F 87% 29.70 in 10.0 mi West 17.3 mph 21.9 mph 0.01 in   Overcast
10:55 AM 37.4 °F 28.9 °F 33.8 °F 87% 29.70 in 10.0 mi West 13.8 mph - 0.01 in   Overcast
11:15 AM 37.4 °F 27.8 °F 33.8 °F 87% 29.70 in 10.0 mi West 17.3 mph - N/A   Overcast
11:35 AM 37.4 °F 28.2 °F 33.8 °F 87% 29.71 in 10.0 mi West 16.1 mph - N/A   Overcast
11:55 AM 35.6 °F 25.9 °F 33.8 °F 93% 29.71 in 10.0 mi West 16.1 mph - N/A   Overcast
12:15 PM 35.6 °F 24.0 °F 33.8 °F 93% 29.70 in 10.0 mi West 23.0 mph - N/A   Overcast
12:35 PM 35.6 °F 25.9 °F 33.8 °F 93% 29.71 in 10.0 mi West 16.1 mph - N/A   Overcast
12:55 PM 35.6 °F 25.2 °F 32.0 °F 87% 29.70 in 10.0 mi West 18.4 mph 24.2 mph 0.01 in   Overcast
1:15 PM 35.6 °F 26.2 °F 33.8 °F 93% 29.70 in 7.0 mi West 15.0 mph 23.0 mph N/A   Overcast
1:35 PM 35.6 °F 26.6 °F 33.8 °F 93% 29.70 in 7.0 mi West 13.8 mph 19.6 mph N/A   Overcast
1:55 PM 35.6 °F 26.6 °F 33.8 °F 93% 29.71 in 7.0 mi West 13.8 mph - N/A   Overcast
2:15 PM 35.6 °F 27.1 °F 33.8 °F 93% 29.72 in 7.0 mi West 12.7 mph 18.4 mph N/A   Overcast
2:35 PM 37.4 °F 28.9 °F 33.8 °F 87% 29.73 in 10.0 mi West 13.8 mph - N/A   Overcast
2:55 PM 37.4 °F 29.3 °F 33.8 °F 87% 29.73 in 7.0 mi West 12.7 mph - N/A   Overcast
3:15 PM 37.4 °F 28.9 °F 33.8 °F 87% 29.74 in 10.0 mi West 13.8 mph - N/A   Overcast
3:35 PM 37.4 °F 29.3 °F 33.8 °F 87% 29.74 in 10.0 mi WSW 12.7 mph - N/A   Scattered Clouds
3:55 PM 37.4 °F 31.4 °F 33.8 °F 87% 29.75 in 10.0 mi WSW 8.1 mph - 0.01 in   Clear
4:15 PM 37.4 °F 32.1 °F 33.8 °F 87% 29.75 in 10.0 mi WSW 6.9 mph - N/A   Clear
4:35 PM 37.4 °F 32.8 °F 33.8 °F 87% 29.75 in 10.0 mi WSW 5.8 mph - N/A   Clear
4:55 PM 35.6 °F - 32.0 °F 87% 29.76 in 10.0 mi Calm Calm - N/A   Clear
5:15 PM 35.6 °F - 32.0 °F 87% 29.76 in 10.0 mi Calm Calm - N/A   Clear
5:35 PM 33.8 °F - 32.0 °F 93% 29.77 in 10.0 mi Calm Calm - N/A   Clear
5:55 PM 33.8 °F - 32.0 °F 93% 29.78 in 10.0 mi Calm Calm - N/A   Clear
6:15 PM 33.8 °F - 32.0 °F 93% 29.79 in 10.0 mi Calm Calm - N/A   Clear
6:35 PM 33.8 °F - 32.0 °F 93% 29.79 in 10.0 mi Calm Calm - N/A   Clear
6:55 PM 33.8 °F - 32.0 °F 93% 29.80 in 10.0 mi Calm Calm - 0.01 in   Clear
7:15 PM 35.6 °F - 32.0 °F 87% 29.80 in 10.0 mi Calm Calm - N/A   Clear
7:35 PM 35.6 °F - 32.0 °F 87% 29.81 in 10.0 mi Calm Calm - N/A   Clear
7:55 PM 35.6 °F - 32.0 °F 87% 29.82 in 10.0 mi Calm Calm - N/A   Clear
8:15 PM 33.8 °F 30.8 °F 32.0 °F 93% 29.82 in 10.0 mi WSW 3.5 mph - N/A   Clear
8:35 PM 33.8 °F - 32.0 °F 93% 29.83 in 10.0 mi Calm Calm - N/A   Clear
8:55 PM 33.8 °F - 32.0 °F 93% 29.85 in 10.0 mi Calm Calm - N/A   Clear
9:15 PM 33.8 °F - 32.0 °F 93% 29.85 in 10.0 mi Calm Calm - N/A   Clear
9:35 PM 35.6 °F 28.0 °F 32.0 °F 87% 29.86 in 10.0 mi West 10.4 mph - N/A   Clear
9:55 PM 35.6 °F 28.0 °F 32.0 °F 87% 29.87 in 10.0 mi West 10.4 mph - N/A   Clear
10:15 PM 35.6 °F 28.6 °F 32.0 °F 87% 29.88 in 10.0 mi West 9.2 mph - N/A   Clear
10:35 PM 33.8 °F 26.4 °F 32.0 °F 93% 29.88 in 10.0 mi West 9.2 mph - N/A   Clear
10:55 PM 33.8 °F 26.4 °F 32.0 °F 93% 29.88 in 10.0 mi West 9.2 mph - N/A   Clear
11:15 PM 33.8 °F 26.4 °F 32.0 °F 93% 29.89 in 10.0 mi West 9.2 mph - 0.01 in   Clear
11:35 PM 33.8 °F 26.4 °F 32.0 °F 93% 29.89 in 10.0 mi West 9.2 mph - 0.01 in   Clear
11:55 PM 33.8 °F - 32.0 °F 93% 29.89 in 10.0 mi Calm Calm - 0.01 in   Clear